Reflectivity
-20 -20 -20 -20 -20 -15 -20 -14 -5 -8 -20 -20 -20 -20 -20 -20 -20 -20 -20 -17 -20 -20 -20 -20 -20 -20 -20 -20 -20 -20 -20 -20 -20 -20 -20 -20 -20 -20 -20 -20 -20 -20 -20 -20 -20 -20 -20
-20 -20 -20 -20 -20 -20 -20 -20 -20 -20 -20 -20 -20 -20 -20 -20 -20 -20 -20 -20 -20 -20 -20 -20 -20 -20 -20 -20 -20 -20 -20 -20 -20 -20 -20 -20 -20 -20 -20 -20 -20 -20 -20 -20 -20 -20 -20
-8 10 3 -18 -20 -20 -20 -20 -20 -20 -20 -20 -20 -20 -20 -20 -20 -20 -20 -20 -20 -20 -20 -20 -20 -20 1 -20 -20 -20 -20 -20 -20 -20 -20 -20 -20 -20 -19 -20 -20 -20 -2 -20 -20 -20 -20
13 15 14 9 -16 -20 -20 -20 -20 -20 -20 -20 -20 -20 -20 -20 -20 -20 -20 -20 -20 -20 -20 -20 -20 -20 -20 -20 -20 -20 -20 -20 -20 -20 -20 -20 -20 -8 -1 -15 5 -2 1 -20 -20 -20 -20
9 12 10 2 -0 0 -5 -20 -20 -20 -20 -20 -20 -20 -20 -20 -20 -20 -20 -20 -20 -20 -20 -20 -20 -15 -20 -20 -20 -20 -20 -20 -20 -20 -20 -8 -3 -6 -10 5 -4 -13 -20 -20 -20 -20 -20
9 -1 1 -2 -4 -0 1 3 0 -20 -20 -20 -20 -20 -20 -20 -20 -20 -20 -20 -20 -20 -20 -11 -20 -20 -20 -20 -20 -20 -20 -20 -20 -7 6 6 5 2 -13 -2 -19 -20 -20 -20 -20 -20 -20
-20 -2 -3 -17 -20 -1 2 -2 1 -16 -20 -9 -20 -20 -20 -20 -20 -20 -20 -20 -20 -20 -16 -20 -20 -20 -20 -20 -20 -20 -20 -20 -13 -15 -20 7 -9 -20 -20 -20 -20 -20 -20 -20 -20 -20 -20
-11 9 -5 -20 -1 -4 -7 -15 -8 -20 8 -20 -20 -20 -20 -20 -20 -20 -20 -20 -20 -20 -20 -20 -20 -20 -20 -20 -20 -20 -20 -20 -12 -20 -20 -15 -12 -20 -20 -20 -20 -20 -20 -20 -20 -20 0
-14 9 -5 -7 -1 -20 -19 -12 -20 -1 5 -20 -20 -20 -20 -20 -20 -20 -20 -20 -20 -20 -20 -20 -20 -20 -20 -20 -20 -20 -20 -20 -20 -20 -20 -20 -20 -20 -20 -20 -20 -20 -20 -20 -20 -20 -2
-20 -12 -20 -20 -1 -20 -20 -20 -19 -16 -16 -20 -20 -20 -20 -20 -20 -20 -20 -20 -20 -20 -20 -20 -20 -20 -20 -20 -20 -20 -20 -20 -20 -20 -20 -20 -20 -20 -20 -20 -20 -20 -20 -20 -20 7 12
-14 -20 -20 1 -19 -9 -20 11 -2 -20 6 -20 -20 -20 -20 -20 -20 -20 -20 -20 -20 -20 -20 -20 -20 -20 -20 -20 -20 -20 -20 -20 -20 -20 -4 -20 -20 -20 -20 -20 -20 -20 -20 -20 -20 -17 12
-18 11 8 7 5 -12 8 -3 -2 -8 -17 -20 -20 -20 -20 -20 -20 -20 -20 -20 -20 -20 -20 -20 -20 -20 -20 -20 -20 -20 -20 -20 -11 -10 -20 -20 -20 -20 -20 -20 -20 -20 -20 -20 -18 5 -1
5 -4 5 13 10 10 6 -3 -20 -4 2 -20 -20 -17 -20 -20 -20 -20 -20 -20 -20 -20 -20 -20 -20 -20 -20 -20 -20 -20 -20 -8 -15 -10 -20 -20 -20 -20 -20 -20 -20 -20 -18 -7 -5 -20 -20
-16 1 10 6 9 11 7 26 -20 16 2 -20 -20 -20 -20 -20 -20 -20 -20 -20 -20 -20 -20 -20 -20 -20 -20 -20 -20 -20 -20 -20 -20 -20 -3 -1 -20 -20 -20 -16 -9 -20 4 13 3 -20 -20
-15 13 -7 -7 1 2 13 -6 8 17 -7 -20 -20 -20 -20 -20 -20 -20 -20 -20 -20 -20 -20 -20 -20 -20 -20 -20 -20 -20 -20 -20 -20 -20 -20 -20 -8 -20 -20 -20 -7 -16 -20 -20 0 -20 -13
17 14 3 -4 6 4 7 7 23 15 10 -20 -20 -20 -20 -20 -20 -20 -20 -20 -20 -20 -20 -20 -20 -20 -20 -20 -20 -20 -20 -20 -20 -20 -17 11 -11 -20 -20 -20 -20 -3 16 4 -20 5 -20
15 16 15 11 -17 -6 -1 0 6 -14 5 7 1 -18 -20 -20 -20 -20 -20 -20 -20 -20 -20 -20 -20 -20 -20 -20 -20 -19 -20 -18 -20 -20 -20 -1 9 -20 -20 -20 -20 -11 -7 34 12 8 9
16 17 15 14 12 -7 -1 -4 -14 -11 22 17 8 -6 -20 -20 -20 -20 -20 -20 -20 -20 -20 -20 -20 -20 -20 -20 -20 -20 -20 7 -20 15 0 12 17 -20 -20 -20 -20 -0 22 28 19 -5 -19
15 8 13 12 12 15 13 -8 -20 -20 15 12 -17 10 -19 -20 -20 -20 -20 -20 -20 -18 -18 -20 -20 -20 -20 -20 -10 -20 -20 7 -20 -20 -20 -20 -17 -20 -20 -20 -20 -19 8 5 14 23 -5
14 14 3 -10 -3 13 7 -20 -20 -14 6 9 13 22 -20 -20 -20 -20 -12 -20 -20 -20 -15 -12 -18 -20 0 -20 -14 4 -20 -20 -20 -20 -19 -4 -14 -20 -14 -12 -20 -20 -20 3 6 8 -9
15 15 14 12 12 -19 -20 -10 -20 -18 -20 -15 19 -8 -7 -20 -20 13 15 -1 -20 -20 -10 -17 -8 -13 11 4 -20 -20 -4 -20 -20 -20 -20 13 -15 -20 -20 -20 -20 -20 -20 -20 -20 -15 6
-20 -20 4 9 5 1 -20 -20 -20 -10 12 -19 -17 -20 -12 -18 -20 -20 -7 -19 -20 -20 -20 -20 -20 -10 -19 -20 -20 -12 9 -20 -20 -20 -20 -13 -1 -20 -20 -20 -20 -20 -20 -20 -20 -20 -20
5 11 13 15 -0 -20 -20 -20 -20 -20 -4 -0 -20 -5 -20 -1 -20 -13 -20 -20 -20 -2 -18 -20 -11 11 -8 -20 -20 -20 -19 -20 -20 -20 -15 12 -9 -9 -20 -20 -20 -20 -20 -20 -9 -20 -20
-20 -18 -18 -20 -8 8 -20 -20 -20 -20 -20 -20 -20 -4 -5 -11 -7 -15 -20 -18 -18 -20 11 -19 22 18 -7 11 -11 -16 -20 -20 -20 -20 -20 -5 8 3 -18 -20 -20 -20 -20 -20 -20 6 -1
10 2 -11 -17 -20 -20 -16 -7 5 0 -20 -20 -20 5 8 -1 -19 -20 -19 -16 -13 5 -2 -18 -20 -5 18 -20 -18 -20 -20 -20 -20 -20 -20 -20 -3 11 -6 -16 -20 -20 4 13 7 -3 11
-4 1 6 6 7 15 7 -18 -16 -20 11 -20 -20 -20 8 -3 -20 -11 -20 -20 -20 -20 -20 -1 2 -20 -20 -20 -20 -20 -18 -20 -20 -20 -20 -20 -10 15 -18 4 -20 -20 -20 -20 -8 -8 28
3 4 -9 -20 -20 -20 -1 8 -8 13 12 -3 -20 -20 -4 -19 -20 -20 -18 -20 -20 -14 1 -20 -20 -20 -20 -20 -18 -20 -9 -20 -0 -20 -20 -20 1 -7 -19 13 -20 -20 -20 -20 10 9 6
-4 -14 -20 -20 -2 -7 -20 -9 -5 -20 -20 16 -19 -19 1 16 -11 -20 -20 -20 -9 -6 8 -20 -20 -20 -20 -20 -15 -20 -20 -20 -20 -19 -17 15 2 -20 -20 -20 -16 -15 -20 -20 -13 11 4
-20 -20 -20 10 10 12 12 4 13 14 8 12 17 -18 5 21 5 -20 -20 -20 -20 -20 -4 -5 -20 -20 4 14 2 -5 -20 4 -20 -20 -20 -19 -2 15 13 -7 11 10 5 1 -15 -2 -18
Wind_Speed
14 14 15 15 16 16 16 16 16 17 18 18 17 15 11 11 11 9 8 8 7 7 5 5 6 8 4 2 5 6 10 8 6 2 3 4 5 3 4 4 8 12 16 17 16 16 20
13 14 14 15 15 16 15 16 16 16 17 18 19 17 13 11 13 11 9 7 7 6 5 4 5 5 2 4 4 6 7 6 3 2 1 1 0 3 5 5 7 5 15 21 17 21 25
14 14 14 14 14 14 14 14 15 15 15 16 18 17 15 12 14 11 9 8 7 7 5 5 6 4 3 11 3 7 7 5 2 1 2 3 2 2 2 5 8 11 19 20 17 16 19
13 13 13 13 12 12 13 13 14 15 15 17 18 19 18 14 14 11 9 7 6 6 5 3 6 2 6 3 4 7 4 1 3 3 1 3 5 3 3 6 7 10 10 9 4 14 13
13 13 13 13 14 13 14 14 14 14 15 17 17 18 19 15 15 12 11 9 7 6 5 3 2 2 7 3 2 6 6 3 6 6 4 3 2 2 1 4 7 6 10 14 19 17 13
12 13 13 13 14 15 15 15 15 14 15 16 15 16 17 14 13 12 13 10 5 2 4 5 4 4 4 4 3 4 4 4 0 4 2 4 3 2 3 5 9 6 9 14 16 4 7
11 12 13 12 13 14 14 13 14 14 14 14 15 16 16 15 13 11 7 3 3 1 5 9 7 4 5 2 3 2 5 5 4 3 5 7 5 14 17 19 19 19 22 26 31 26 21
12 13 12 13 12 14 15 13 13 14 14 14 14 15 16 17 13 11 3 2 3 3 9 12 16 7 3 5 0 5 8 7 7 7 8 6 17 21 16 17 19 21 24 31 33 25 17
12 13 13 13 13 13 14 14 14 14 14 14 15 15 16 17 14 4 2 2 1 3 3 6 4 6 5 6 5 7 13 5 7 10 12 13 11 4 7 13 14 20 23 28 29 33 24
13 13 13 14 14 12 13 13 13 14 13 11 13 14 16 19 2 4 2 2 3 3 3 4 0 1 2 3 5 6 12 5 4 5 9 11 15 13 12 16 11 17 19 22 22 18 13
14 14 14 13 13 13 13 13 12 12 12 9 11 14 17 10 4 3 2 4 2 3 5 2 4 2 2 4 1 4 4 3 8 8 2 9 7 6 9 15 7 16 14 16 23 22 18
17 16 16 14 14 12 13 12 11 12 11 9 11 12 12 4 1 3 6 4 3 5 7 2 4 3 2 5 3 3 4 1 4 7 12 21 7 9 11 12 10 12 12 20 18 7 7
16 16 16 16 14 14 12 13 11 11 11 9 12 11 6 2 2 5 4 2 4 3 2 2 4 6 5 4 5 7 6 7 5 5 4 5 11 7 10 7 1 1 8 8 4 3 8
13 15 16 16 15 14 14 11 11 11 10 8 10 12 3 1 3 4 3 4 3 4 2 3 1 6 7 5 5 7 4 5 12 8 3 4 8 2 2 5 11 11 5 5 9 6 16
15 14 13 13 15 13 15 13 12 9 6 7 10 3 0 2 4 3 4 3 7 2 2 6 10 4 1 2 2 4 7 6 4 13 6 4 6 10 17 7 3 6 5 5 6 8 6
15 16 17 18 16 13 12 14 10 7 2 3 2 3 1 3 3 4 5 6 4 1 2 2 2 2 2 3 1 2 4 3 2 5 2 3 9 10 11 8 10 10 5 5 3 6 7
16 17 18 18 19 19 17 13 9 9 4 4 1 3 2 3 3 5 3 6 5 1 0 2 3 4 4 3 2 2 6 4 2 1 1 3 6 4 7 5 10 3 5 5 4 4 5
15 15 16 18 18 19 21 21 11 10 6 3 0 2 3 3 3 1 2 5 4 4 2 3 2 3 4 4 4 4 5 3 5 1 2 1 4 6 8 19 9 7 6 5 6 8 5
15 16 17 17 17 18 19 18 18 15 8 3 2 3 1 4 2 3 5 5 5 3 5 4 4 7 3 3 4 4 4 3 4 1 2 2 2 7 8 6 5 3 10 11 9 8 4
15 15 15 16 16 16 17 18 19 14 3 3 2 1 2 2 2 2 3 5 4 2 4 4 5 2 2 4 5 6 3 2 2 4 5 2 3 6 8 11 10 16 22 17 10 8 10
13 14 14 14 15 16 15 17 19 16 12 4 2 2 0 3 2 3 1 3 2 5 5 2 4 5 1 4 4 7 6 4 6 9 5 3 5 9 12 12 14 18 20 25 18 16 12
12 13 13 14 15 14 15 15 17 17 8 2 0 2 1 2 1 2 3 5 5 5 3 5 5 7 5 7 8 11 10 4 5 5 4 4 5 2 10 13 16 19 21 18 20 21 18
12 12 13 12 14 14 14 14 15 15 8 2 1 1 2 3 3 3 5 6 4 2 7 9 7 6 8 13 10 12 10 8 11 7 5 4 2 2 11 4 8 11 11 7 4 8 7
13 13 13 13 15 14 11 13 10 11 9 1 1 0 1 6 3 4 4 7 14 10 14 16 9 8 2 3 6 7 11 16 16 16 11 9 3 2 7 4 2 7 4 4 6 5 10
12 13 12 13 12 12 13 12 12 9 7 3 1 1 2 7 2 7 5 5 9 7 10 13 12 4 1 1 4 6 5 6 4 2 8 13 6 3 3 4 8 9 5 4 6 3 8
11 11 12 12 14 13 11 11 11 11 7 2 2 3 2 3 5 2 2 4 3 7 8 2 3 3 3 1 0 3 3 4 4 2 5 3 3 3 1 3 6 1 6 8 5 1 9
11 14 14 15 15 15 16 16 14 12 11 1 3 3 2 3 5 3 3 3 2 4 4 4 5 5 2 2 2 3 5 3 2 2 3 1 1 4 5 3 8 5 10 7 1 4 10
13 14 15 15 16 16 16 16 15 14 14 6 4 6 4 4 6 6 4 4 2 2 3 4 5 3 1 1 2 4 2 4 2 4 3 3 4 4 1 1 6 7 4 5 6 5 10
13 15 16 15 15 15 15 15 16 15 15 11 3 3 6 5 7 3 5 10 10 10 6 3 4 2 3 2 2 3 3 2 3 3 3 2 4 2 5 3 7 10 11 7 9 6 11
Wind_Direction
21 20 16 19 15 15 17 18 16 15 14 10 8 2 348 346 344 329 318 309 304 307 315 328 338 347 341 322 252 164 152 131 99 82 62 44 39 1 281 298 336 279 280 272 271 267 263
15 16 16 13 15 13 12 14 14 13 19 10 16 10 351 342 345 333 319 307 295 296 300 311 325 338 280 280 133 161 137 125 143 111 35 18 7 1 295 254 235 272 289 283 283 272 268
7 8 8 10 12 9 5 13 8 11 14 8 9 4 353 343 343 337 324 311 305 295 293 306 313 295 255 247 138 149 164 154 179 169 217 260 308 185 314 295 278 288 290 281 256 252 255
1 0 1 0 2 3 2 7 4 7 8 6 4 358 351 344 336 334 327 310 302 287 286 286 311 336 251 304 156 158 148 158 220 251 263 300 313 338 259 283 280 276 267 284 171 226 246
355 357 356 356 358 358 0 1 3 3 2 2 2 358 353 346 336 331 319 303 285 271 253 228 301 179 266 292 184 184 158 183 221 226 247 215 87 237 217 269 291 236 264 254 298 226 243
346 349 352 357 352 354 352 355 356 359 356 359 0 356 352 347 341 335 319 299 294 239 242 218 256 7 266 244 155 143 160 123 61 248 207 170 196 233 204 186 242 233 257 262 273 266 273
343 343 342 344 347 344 345 349 353 353 352 355 353 351 350 344 335 332 345 26 25 280 254 193 200 218 146 92 75 174 117 157 198 226 221 186 208 228 228 215 239 269 272 274 270 273 279
331 335 336 335 338 339 337 344 342 345 347 351 348 345 343 340 329 318 328 347 110 211 296 243 238 237 269 153 175 214 155 183 191 213 213 242 244 247 240 234 242 247 266 270 278 277 261
324 327 326 326 329 334 333 340 338 337 343 345 345 342 337 331 320 330 220 80 3 24 272 294 213 218 228 169 235 204 155 184 229 240 226 233 230 248 230 245 253 253 254 269 272 292 269
319 318 318 318 320 326 322 326 327 332 337 337 339 337 336 333 351 313 55 355 343 65 33 260 310 41 107 104 255 167 186 167 202 250 231 249 256 253 252 256 232 264 258 259 277 293 278
301 302 305 308 307 308 309 317 328 329 328 327 333 336 336 339 290 9 311 329 311 58 356 210 138 354 155 193 320 167 173 102 242 244 237 254 285 280 255 243 160 249 289 276 275 272 284
292 292 291 290 292 292 299 304 310 316 321 328 328 333 344 51 266 303 326 324 49 48 266 140 135 179 195 208 240 125 179 254 256 250 239 252 250 263 234 268 213 266 304 290 273 269 252
291 288 283 278 278 278 285 290 296 302 307 320 324 331 328 293 275 316 336 26 44 159 349 287 207 174 194 224 209 186 185 201 219 257 230 256 254 239 213 269 130 314 308 309 327 251 250
317 306 294 279 272 274 271 276 280 290 301 313 315 312 249 78 320 349 56 66 119 237 334 5 244 248 206 146 239 201 239 255 219 207 282 253 322 28 132 246 277 263 235 282 315 307 296
12 359 345 333 297 275 277 268 270 275 294 312 331 352 106 307 335 31 63 75 211 236 303 328 305 242 158 110 185 230 224 234 222 176 204 291 249 332 302 302 324 308 274 224 268 254 271
13 13 16 11 357 341 305 281 268 260 264 346 12 330 294 306 26 54 60 267 272 83 328 351 259 70 321 264 291 33 269 214 230 186 122 284 290 243 295 303 279 208 313 316 317 310 298
2 13 13 13 15 14 358 319 278 264 230 88 37 350 285 10 49 49 165 257 306 213 310 246 282 305 275 269 210 254 267 295 82 188 178 299 226 308 341 289 309 335 316 316 269 241 298
6 6 15 17 16 16 10 11 343 272 145 91 199 289 296 63 51 149 220 213 292 266 179 276 227 241 228 280 254 250 245 357 77 104 284 334 311 286 260 286 305 258 46 358 309 332 283
16 19 18 18 17 15 16 12 13 358 156 124 179 245 301 91 184 229 272 263 224 231 228 213 247 211 195 259 296 246 274 200 146 123 159 311 304 310 333 343 18 350 312 330 313 274 255
22 24 22 17 15 11 8 5 0 354 260 91 102 276 311 32 1 222 286 265 263 268 277 245 262 306 227 266 233 275 265 311 155 193 285 167 231 221 265 278 297 302 304 309 301 287 305
19 22 21 20 20 17 8 7 5 355 119 103 39 255 17 290 287 237 334 312 278 292 257 290 322 233 178 263 272 251 236 311 293 272 165 224 253 234 254 270 284 281 282 295 287 271 259
20 22 16 16 16 14 16 14 10 23 11 31 211 190 171 263 178 281 210 229 218 264 228 251 215 251 193 210 210 268 287 263 219 307 145 189 263 264 272 266 267 277 271 270 276 274 267
6 5 1 5 11 9 5 11 14 8 2 29 4 15 131 226 191 218 227 234 258 279 246 246 252 256 241 248 270 251 248 250 251 216 217 233 230 212 275 317 321 286 265 255 299 39 330
7 3 358 357 3 354 7 4 4 16 28 302 35 138 222 273 221 210 255 261 297 280 283 286 279 289 258 353 317 277 258 254 252 245 233 240 209 227 278 34 259 233 22 50 132 52 17
3 0 354 355 357 348 350 340 339 355 0 58 263 294 268 280 287 289 278 269 289 289 290 282 276 305 2 294 326 327 310 346 317 63 225 223 217 239 231 186 300 314 25 11 358 28 359
2 356 347 347 346 340 333 333 326 334 331 108 241 175 249 293 254 293 287 245 258 311 301 285 256 315 311 280 233 245 251 239 298 293 3 65 205 213 113 231 234 280 307 293 213 235 355
344 352 354 349 346 347 349 351 344 334 316 257 240 173 123 262 265 200 226 236 251 272 282 313 330 334 52 217 220 224 233 212 273 232 209 326 160 201 244 251 285 292 298 291 153 11 344
355 350 345 343 339 337 335 328 328 325 325 328 232 189 179 242 266 224 218 198 234 223 280 277 348 338 283 263 232 253 188 248 66 219 195 213 173 215 111 204 293 347 6 52 335 6 5
345 344 344 340 335 332 324 317 323 318 315 316 262 220 208 226 263 277 248 235 215 222 248 202 222 207 273 255 325 320 297 1 179 262 309 254 204 179 209 220 43 40 63 25 4 358 2